TIME,DELAY(SENSOR),PRES,T(CTD),SAL,OXYGEN,RAWTEMP,T(OPTODE),TCPHASE,FLUOR,BETA(BETA700),BETA(BETA412),BETA(BETA440),CDOM,C(CSC),ED(ED412.40),ED(ED444.00),ED(ED489.70),ED(ED554.30),LU(LU411.80),LU(LU443.40),LU(LU489.60),LU(LU554.10),COMP,TILTX,TILTX(TILTY),CHECK
1336857629,5805,493.9700012207031000,6.9274997711181640,34.1739997863769500,73.0775680541992200,590.1392822265625000,6.9023418426513670,49.6011810302734400,52,109,88,81,81,15262,2147751268,2147422043,2148002240,2147872201,2147632694,2147080512,2148244754,2147204406,2918,4,13,63224
1336857760,5802,483.2300109863281000,7.1357002258300780,34.1558990478515600,86.6041870117187500,583.5189208984375000,7.1153888702392580,47.9012794494628900,51,109,89,82,81,15262,2147750134,2147420443,2148000941,2147872082,2147632365,2147086198,2148245220,2147205266,167,4,13,41508
1336857902,5809,472.2500000000000000,7.2831001281738280,34.1598014831543000,89.8046875000000000,578.8358154296875000,7.2658519744873050,47.4685516357421900,53,110,90,81,80,15262,2147748297,2147422729,2148004041,2147869056,2147630738,2147082962,2148237988,2147202304,204,4,13,36542
1336858024,5807,461.2500000000000000,7.6083002090454100,34.1534004211425800,96.1323928833007800,568.5681152343750000,7.5950531959533690,46.6138381958007800,52,110,90,81,79,15259,2147747282,2147421028,2148000374,2147872256,2147626678,2147087021,2148238646,2147207113,2966,4,13,23227
1336858133,5807,449.8099975585937500,7.7944002151489260,34.1394004821777340,106.9113998413086000,563.1854248046875000,7.7672629356384280,45.3950691223144500,52,108,88,82,78,15261,2147746697,2147422829,2148001654,2147872420,2147625673,2147087195,2148237878,2147206061,2227,4,13,58556
1336858242,5807,439.6099853515625000,7.8839001655578610,34.1383018493652340,116.3209991455078100,560.0294189453125000,7.8681178092956540,44.4039192199707000,51,111,91,80,79,15260,2147746331,2147421010,2148000740,2147870317,2147626770,2147091428,2148237842,2147206162,1833,4,13,38334
1336858376,5807,428.2600097656250000,7.9970002174377440,34.1386985778808600,119.8283996582031200,556.4572753906250000,7.9821701049804690,44.0079612731933600,51,108,93,81,79,15259,2147745956,2147419638,2148001435,2147874157,2147622966,2147093650,2148236882,2147204013,1765,4,13,36604
1336858507,5811,417.2799987792969000,8.3753004074096680,34.1445999145507800,121.1738967895507800,544.7573852539062000,8.3549766540527340,43.6844596862793000,50,109,90,80,78,15259,2147745106,2147419821,2148002249,2147871853,2147619693,2147091876,2148236937,2147208210,2623,4,13,23934
1336858640,5810,406.3299865722656000,8.5910997390747070,34.1184005737304700,144.4201965332031200,537.4301757812500000,8.5878849029541020,41.4823608398437500,50,112,90,81,77,15257,2147743414,2147419949,2148000685,2147870902,2147620443,2147091739,2148236827,2147206043,2374,3,13,9333
1336858771,5807,394.8399963378906000,8.9664001464843750,34.1242980957031250,153.8683929443359400,526.1439819335938000,8.9458103179931640,40.5160102844238300,50,110,90,81,76,15258,2147739849,2147420854,2148000283,2147871826,2147622756,2147101284,2148234276,2147204416,2547,4,13,60182
1336858891,5809,384.0700073242187500,9.2783002853393550,34.1309013366699200,157.8972015380859400,516.4638061523438000,9.2520265579223630,40.0319404602050800,50,113,91,81,76,15256,2147741805,2147422253,2148000859,2147873737,2147617581,2147094866,2148232877,2147206902,2446,4,13,30701
1336859014,5808,373.2900085449219000,9.5687999725341800,34.1361007690429700,166.2955932617187500,506.6340942382812500,9.5622644424438480,39.2242813110351560,50,110,86,81,76,15260,2147738889,2147421878,2148002313,2147875008,2147614354,2147104768,2148231862,2147204937,2906,4,13,28479
1336859145,5808,362.7999877929687500,9.8290996551513670,34.1422996520996100,171.1535034179687500,498.5705871582031000,9.8162422180175780,38.7304801940918000,50,108,88,81,74,15258,2147736036,2147423954,2148003529,2147873289,2147615104,2147103277,2148231003,2147207862,3239,4,14,3633
1336859322,5808,349.5899963378906000,10.2852001190185550,34.1517982482910160,178.6580047607422000,483.8662109375000000,10.2782402038574220,37.9486503601074200,49,112,89,81,74,15257,2147736292,2147425718,2148002550,2147876050,2147612818,2147112027,2148229741,2147208310,508,4,13,14591
1336859453,5807,338.5599975585937500,10.7679996490478520,34.1697998046875000,188.3775024414062500,468.6741027832031000,10.7540798187255860,37.0381088256835940,50,111,90,82,73,15255,2147737965,2147425691,2148011154,2147871515,2147611081,2147114459,2148232301,2147208429,553,4,13,34845
1336859586,5806,327.5199890136719000,10.9743995666503900,34.1777992248535160,193.1116943359375000,461.5072021484375000,10.9780597686767580,36.6135292053222660,50,109,91,80,72,15257,2147737444,2147427090,2148012745,2147873124,2147610870,2147120521,2148229385,2147210697,1322,4,14,58297
1336859717,5807,316.6900024414062500,11.1567001342773440,34.1838989257812500,195.3556060791015600,455.9796142578125000,11.1506004333496100,36.3798789978027340,49,108,90,81,71,15255,2147733723,2147430866,2148022509,2147875282,2147607908,2147122550,2148236086,2147212754,2723,4,15,27045
1336859848,5808,305.8299865722656000,11.5212001800537110,34.1973991394043000,200.5610046386718800,443.2694091796875000,11.5466604232788090,35.8490409851074200,48,109,90,81,71,15255,2147732717,2147433545,2148034386,2147873362,2147604022,2147122029,2148234185,2147209910,2959,4,13,10869
1336859982,5808,294.3399963378906000,12.2473001480102540,34.2332992553710940,204.2523040771484400,420.5262145996094000,12.2531900405883790,35.2608489990234400,49,108,90,80,71,15256,2147732580,2147441371,2148052845,2147874788,2147604745,2147129545,2148241462,2147212781,2247,3,13,30970
1336860102,5806,283.7900085449219000,12.4493999481201170,34.2436981201171900,205.6652984619140600,413.8120117187500000,12.4612703323364260,35.0710716247558600,49,111,91,81,71,15257,2147730258,2147447451,2148077238,2147874432,2147599826,2147136036,2148250176,2147212854,2064,3,14,39678
1336860235,5808,272.7500000000000000,12.8640003204345700,34.2425003051757800,204.4075012207031200,400.9624938964844000,12.8589000701904300,34.9434700012207000,49,107,90,81,71,15258,2147729664,2147461659,2148112109,2147874267,2147600950,2147143616,2148265974,2147214326,2009,3,14,55066
1336860388,5807,262.2000122070312500,13.4075002670288090,34.2785987854003900,202.8719940185547000,382.8819885253906000,13.4171800613403320,34.7537193298339840,49,107,90,80,70,15257,2147730788,2147479488,2148151424,2147874825,2147595209,2147162413,2148285120,2147217956,2467,4,14,46650
1336860585,5807,249.4799957275390600,14.4019002914428710,34.3328018188476560,191.5769042968750000,351.4772949218750000,14.3838996887207030,34.9672393798828100,49,107,88,81,70,15255,2147734509,2147521024,2148236306,2147872228,2147597860,2147183241,2148317613,2147223369,649,4,13,23239
1336860705,5809,238.5000000000000000,14.9720001220703120,34.3945007324218750,195.5865936279297000,332.6376953125000000,14.9623003005981450,34.4310493469238300,49,108,90,81,69,15255,2147743789,2147578934,2148342866,2147876388,2147594614,2147215972,2148362020,2147229001,1655,3,13,53509
1336860827,5807,227.3800048828125000,15.9319000244140620,34.4900016784668000,195.2789001464843800,301.1997985839844000,15.9254703521728520,33.9822196960449200,50,107,92,80,69,15252,2147757458,2147669348,2148490624,2147873782,2147597659,2147266230,2148435465,2147232073,976,4,14,27442
1336860958,5807,216.9600067138672000,16.4361000061035160,34.5547981262207000,199.1278076171875000,284.2786865234375000,16.4430809020996100,33.5012588500976560,51,108,93,82,68,15251,2147789476,2147787446,2148687277,2147877970,2147606464,2147338633,2148519680,2147240969,2447,3,15,42869
1336861166,5805,204.3899993896484400,18.2476005554199220,34.7690010070800800,203.1757965087890600,222.6885986328125000,18.3246097564697270,32.3866195678710940,55,110,90,82,66,15240,2147870171,2148025362,2149033042,2147875657,2147634240,2147487570,2148691739,2147254189,553,3,15,13009
1336861265,5805,198.3099975585937500,19.0452995300292970,34.8870010375976560,212.0332031250000000,199.4207000732422000,19.0352802276611330,31.5700302124023440,56,108,90,82,67,15235,2147935972,2148188260,2149256923,2147875008,2147657078,2147592722,2148800521,2147266733,723,3,14,17322
1336861330,5803,193.8600006103515600,19.2562999725341800,34.9165992736816400,213.7985992431640600,192.3764038085937500,19.2504997253417970,31.3783798217773440,57,110,87,82,65,15235,2148003026,2148329545,2149444955,2147877202,2147686537,2147684909,2148897024,2147276004,137,3,14,57711
1336861384,5810,189.9400024414062500,19.5004997253417970,34.9449996948242200,215.0740051269531200,184.5706939697265600,19.4890403747558600,31.2043209075927730,57,110,89,81,66,15231,2148077796,2148482240,2149646162,2147877933,2147717065,2147776128,2148999570,2147281737,452,2,14,16721
1336861458,5808,184.6699981689453000,19.6963996887207030,34.9776000976562500,217.0659942626953000,177.2388000488281200,19.7131595611572270,31.0004100799560550,59,113,90,82,64,15228,2148196708,2148708864,2149941074,2147878683,2147767021,2147917312,2149151478,2147296100,272,3,15,51605
1336861512,5808,180.8600006103515600,20.0210990905761720,35.0144004821777340,217.2391967773437500,167.2924957275390600,20.0173206329345700,30.8577995300292970,61,108,90,81,65,15215,2148301394,2148892699,2150176466,2147879789,2147814546,2148041252,2149274560,2147307337,119,2,15,12565
1336861566,5808,177.2599945068359400,20.7852993011474600,35.0987014770507800,217.2935028076172000,145.0229034423828000,20.6989307403564450,30.5585308074951170,66,110,90,81,63,15224,2148423323,2149101037,2150452306,2147880694,2147869156,2148167131,2149413485,2147316818,3467,2,15,4625
1336861631,5809,173.3899993896484400,21.0958995819091800,35.1666984558105500,222.9250946044922000,133.4497070312500000,21.0535697937011720,30.1182899475097660,67,112,88,82,62,15222,2148561444,2149340873,2150778596,2147881088,2147941440,2148339812,2149583213,2147329664,3230,3,15,55316
1336861707,5810,168.9900054931640600,21.2471008300781250,35.1910018920898440,227.1116943359375000,127.6694030761718800,21.2308101654052730,29.8348693847656250,68,113,90,81,62,15216,2148749997,2149647195,2151175744,2147884690,2148047195,2148552694,2149813741,2147350692,3338,2,16,33017
1336861784,5807,165.1600036621093800,21.3579006195068360,35.1986999511718750,227.8394927978515600,123.6365966796875000,21.3545303344726560,29.7469005584716800,70,111,91,83,61,15214,2148932781,2149930560,2151537060,2147886646,2148152978,2148759542,2150006198,2147363940,444,2,16,47608
1336861882,5805,162.3200073242187500,21.6644992828369140,35.2322998046875000,228.6464996337890600,114.9040985107421900,21.6225605010986330,29.5945892333984380,76,113,91,82,62,15212,2149096932,2150197458,2151880594,2147887561,2148245878,2148947894,2150196123,2147380105,1073,2,16,14166
1336862109,5809,157.8600006103515600,21.8118000030517580,35.2541999816894500,232.3081970214843800,108.7753982543945300,21.8108100891113280,29.3398303985595700,80,116,90,83,62,15195,2149574921,2150960512,2152880877,2147897316,2148533302,2149473444,2150722084,2147417984,566,2,15,26563
1336862218,5809,153.7400054931640600,21.9862003326416000,35.2652015686035160,233.3721923828125000,104.4007034301757800,21.9452590942382800,29.2334995269775400,83,121,88,82,61,15188,2149016182,2149739355,2151048448,2147888502,2148276041,2148740233,2149829467,2147351314,920,2,16,27079
1336862327,5808,150.1199951171875000,22.0338993072509770,35.2683982849121100,235.0420989990234400,101.7242965698242200,22.0275306701660160,29.1206893920898440,88,119,91,83,61,15185,2148418587,2148585947,2149405540,2147879204,2147951158,2147955648,2148906660,2147282624,1342,2,16,38332
1336862438,5805,145.3500061035156200,22.0802001953125000,35.2657012939453100,235.7290039062500000,100.1670989990234400,22.0754203796386720,29.0689506530761720,94,121,93,83,62,15175,2151262518,2153415424,2156073170,2147923062,2149533668,2151037549,2152321901,2147541641,1313,2,16,41123
1336862514,5806,141.2100067138672000,22.1005992889404300,35.2620010375976560,236.1871948242187500,99.3900527954101600,22.0993194580078120,29.0376091003417970,95,119,93,83,61,15169,2149963840,2150934491,2152422107,2147897069,2148869357,2149545398,2150595419,2147411620,2019,2,16,53703
1336862590,5806,136.9400024414062500,22.1669998168945300,35.2523994445800800,236.4373931884765600,97.4524002075195300,22.1589202880859380,29.0013809204101560,103,123,92,84,62,15166,2150421430,2151580809,2153224722,2147909577,2149015716,2149673453,2150684681,2147424082,2425,2,16,58857
1336862655,5811,133.4299926757812500,22.2982006072998050,35.1711997985839840,234.0903930664062500,93.0994262695312500,22.2928504943847660,29.0554695129394530,132,128,91,85,62,15129,2150636891,2151696539,2153148288,2147912749,2149139126,2149775625,2150748955,2147425673,2654,1,17,38584
1336862745,5808,129.6999969482422000,22.5506992340087900,35.2066993713378900,233.2033996582031200,85.1806793212890600,22.5366802215576170,28.9964408874511720,135,126,93,84,62,15127,2155735661,2159368219,2162724891,2147999442,2151563282,2153763328,2155070052,2147786322,2596,2,16,21095
1336862832,5808,125.7900009155273400,22.9260005950927730,35.2478981018066400,232.5615997314453000,73.0260925292968800,22.9113903045654300,28.8725700378417970,130,130,95,84,62,15119,2157441280,2161368777,2164594889,2148032813,2152173842,2154460196,2155771291,2147857700,2042,2,16,56367
1336862941,5811,122.4499969482421900,23.2908000946044920,35.2705993652343750,234.5384063720703000,61.6390991210937500,23.2629795074462900,28.6365394592285160,107,124,95,84,61,15134,2158646829,2162811776,2165929773,2148056201,2152672438,2155060708,2156317860,2147911506,1550,2,16,43226
1336863118,5807,118.0100021362304700,23.3577995300292970,35.2722015380859400,237.0404052734375000,58.6497306823730500,23.3553695678710940,28.4838008880615230,97,123,91,84,64,15132,2161685275,2166362907,2169159908,2148118875,2154168658,2156849554,2157908242,2148057947,3526,2,16,16229
1336863216,5805,113.8000030517578100,23.4214000701904300,35.2798995971679700,237.5601959228515600,56.2512207031250000,23.4295291900634770,28.4299201965332030,90,123,95,85,61,15133,2165407926,2170636278,2172984530,2148196004,2156099318,2159138002,2159834221,2148242761,3187,2,16,57914
1336863314,5807,109.8099975585937500,23.4829006195068360,35.2326011657714840,238.9073028564453000,54.2346115112304700,23.4918994903564450,28.3434906005859380,112,418,93,85,58,15129,2169372425,2175082093,2176911149,2148295405,2158389211,2161765741,2161975917,2148440210,3180,2,17,52365
1336863413,5809,105.7699966430664000,23.5904998779296880,35.1568984985351560,240.9611968994140600,50.9471397399902340,23.5936107635498050,28.2101192474365230,77,127,93,85,59,15126,2174173952,2180364672,2181550016,2148427492,2161712996,2165518619,2164879725,2148701458,829,2,16,32308
1336863511,5809,101.7300033569336000,23.7290992736816400,35.1385002136230500,241.4167938232422000,47.1775703430175800,23.7103099822998050,28.1427497863769530,86,182,91,86,59,15133,2179148461,2185797696,2186359332,2148587373,2165645074,2169806729,2168035053,2148986422,1852,2,17,49694
1336863587,5816,99.0199966430664000,23.9456996917724600,35.2042007446289060,242.0634002685547000,41.1046981811523440,23.8984394073486330,28.0385398864746100,70,125,93,84,60,15130,2171057170,2174646838,2173910400,2148364516,2162110144,2164531620,2162614665,2148505984,1825,1,16,44530
1336863652,5808,96.6500015258789000,24.0447998046875000,35.2342987060546900,242.2848052978515600,36.4826507568359400,24.0417499542236330,27.9713993072509770,72,127,93,85,59,15128,2186543094,2193902244,2193701878,2148877302,2171934537,2176548708,2172890715,2149422610,2214,2,16,17312
1336863730,5802,92.7900009155273400,24.1312999725341800,35.2518997192382800,242.9367980957031200,33.6176910400390600,24.1306304931640620,27.9071998596191400,72,128,93,86,58,15114,2192615643,2200170477,2199189961,2149154185,2177347382,2182115044,2176827254,2149766683,2898,1,16,36309
1336863784,5808,89.3000030517578100,24.1879997253417970,35.2429008483886700,243.5637969970703000,32.0808105468750000,24.1783294677734380,27.8605995178222660,129,260,92,87,59,15130,2199353408,2207533348,2206071981,2149558381,2183184594,2188142436,2181067940,2150173504,2822,1,17,64996
1336863838,5811,85.6500015258789000,24.0797004699707030,35.1738014221191400,244.1071014404297000,35.0602493286132800,24.0858707427978500,27.8734798431396500,67,123,91,86,59,15125,2206190418,2214632192,2212434294,2149992841,2189686509,2194806619,2185782363,2150625508,2534,1,16,27636
1336863892,5818,82.0599975585937500,23.8899002075195300,35.0668983459472660,244.7503051757812500,41.2163200378418000,23.8949794769287100,27.9214191436767580,67,121,94,86,57,15124,2214535579,2223274505,2220288466,2150568356,2197174016,2202487296,2191175707,2151164973,1804,1,17,60006
1336863946,5809,78.6200027465820300,23.9416999816894530,35.0307006835937500,244.0121002197265600,39.7038307189941400,23.9418697357177730,27.9350395202636720,66,122,94,84,57,15117,2220778816,2229512950,2226057654,2151161042,2203229842,2208487341,2195268480,2151614198,1533,1,16,40667
1336864000,5810,75.5199966430664000,23.9953994750976560,35.0295982360839840,244.0780029296875000,37.9924888610839840,23.9949302673339840,27.9108791351318360,65,121,93,83,58,15119,2227072594,2235674587,2231617426,2151787830,2209490651,2214504027,2199350765,2152056786,1159,2,17,3292
1336864074,5807,72.1500015258789000,24.0457000732421880,35.0231018066406250,244.1544952392578000,36.3693618774414060,24.0452709197998050,27.8875808715820300,64,124,95,85,61,15116,2234985024,2243651556,2239121490,2152659282,2218285677,2223278281,2205511606,2152677842,635,2,16,64790
1336864128,5808,70.6600036621093800,24.0561008453369140,35.0218009948730500,244.2926940917968800,35.8147811889648440,24.0624694824218750,27.8747692108154300,67,122,93,85,57,15119,2240441782,2249821504,2245231579,2153255350,2222325248,2227415104,2208615616,2153072210,345,2,16,54332
1336864193,5808,69.3899993896484400,24.0701999664306640,35.0135002136230500,244.1573028564453000,35.1970596313476560,24.0816307067871100,27.8731498718261720,62,123,94,84,56,15112,2241615625,2250736960,2245932114,2153552594,2224178148,2229027593,2209655396,2153215634,359,2,16,23286
1336864335,5807,67.8499984741211000,24.0825996398925780,35.0130996704101560,243.8719940185547000,34.2073783874511700,24.1123409271240230,27.8732700347900400,62,126,95,86,58,15112,2244563858,2253860169,2249064000,2154039899,2227514633,2232458093,2212259346,2153518125,149,2,16,2667
1336864442,5804,66.2099990844726600,24.1039009094238280,35.0070991516113300,243.8954925537109400,34.3786010742187500,24.1070194244384770,27.8743896484375000,61,125,92,85,56,15113,2254927058,2265542043,2260527442,2155371017,2237577718,2242129892,2218908736,2154296164,2834,2,17,36898
1336864518,5809,64.2200012207031200,24.1303005218505860,35.0036010742187500,244.1136016845703000,33.4744911193847660,24.1350803375244140,27.8535194396972660,59,124,93,85,58,15101,2261788973,2272254345,2266474166,2156321645,2246672118,2250606902,2224188114,2154912731,2828,2,17,36742
1336864594,5808,62.4099998474121100,24.1606998443603500,35.0018997192382800,244.3406066894531200,32.5234718322753900,24.1645908355712900,27.8318996429443360,57,122,94,87,56,15107,2263775963,2273391360,2267140598,2156941741,2252955136,2255868781,2226929298,2155197696,3294,2,17,63141
1336864715,5810,59.4599990844726560,24.1777992248535160,34.9982986450195300,244.4604034423828000,31.9463691711425780,24.1825008392334000,27.8195495605468750,57,121,94,85,54,15105,2278914304,2288651830,2281461504,2159411931,2273263003,2274590829,2238723785,2156579072,29,2,16,55155
1336864769,5806,57.3100013732910160,24.2196998596191400,35.0041007995605500,244.4414062500000000,30.5624198913574220,24.2254695892334000,27.8032608032226560,57,121,92,86,56,15116,2284693366,2295779510,2289664594,2161253604,2277216228,2277615323,2240139693,2157067136,150,1,16,4766
1336864823,5809,55.1399993896484400,24.2833995819091800,35.0004997253418000,244.2794036865234400,28.6008796691894530,24.2863807678222660,27.7863292694091800,56,123,93,85,56,15106,2291609600,2300974592,2293073856,2162936987,2291668050,2290369590,2247908123,2157947858,4,2,16,10773
1336864877,5811,53.0499992370605500,24.4368000030517580,35.0131988525390600,243.7366027832031200,24.1173992156982420,24.4256706237792970,27.7549190521240230,56,122,94,85,57,15092,2303540827,2313626358,2305224731,2165442715,2309864640,2306733714,2258299922,2159243529,3291,1,16,60399
1336864931,5807,51.0400009155273440,24.5305995941162100,35.0189018249511700,243.4136962890625000,20.9110698699951170,24.5253505706787100,27.7296295166015620,55,122,96,85,55,15099,2310277412,2320322240,2311967670,2167756973,2321019364,2316475693,2264193718,2160126153,3544,2,16,660
1336864985,5807,49.1199989318847660,24.5596008300781250,35.0203018188476560,243.2216949462890600,19.5547599792480470,24.5675296783447270,27.7212600708007800,53,123,93,86,59,15100,2317867072,2327370770,2318468086,2169705755,2335885238,2330234715,2273199926,2161426121,400,2,16,13590
1336865063,5806,45.5699996948242200,24.5888004302978500,35.0161018371582000,243.1284027099609400,18.7165393829345700,24.5936107635498050,27.7150192260742200,54,120,91,85,58,15099,2337802340,2350083172,2341817526,2177414317,2362299273,2353257590,2287371968,2163979090,2264,2,15,32080
1336865117,5806,43.1800003051757800,24.5732002258300780,34.9980010986328100,243.2413024902343800,18.7649307250976560,24.5921001434326170,27.7106704711914060,53,119,95,84,59,15096,2350510656,2362459117,2354874340,2182989906,2376911725,2365655972,2295469942,2165618093,170,2,16,64843
1336865171,5805,40.1300010681152340,24.5914993286132800,34.9966011047363300,242.9889984130859400,18.4287796020507800,24.6025600433349600,27.7176399230957030,52,118,92,86,52,15103,2359652699,2370400009,2362648082,2188975725,2409198134,2395988306,2316073910,2169389430,844,2,16,17787
1336865225,5807,36.8600006103515600,24.6089000701904300,35.0014991760253900,242.8890075683593800,17.8803901672363280,24.6196193695068360,27.7153797149658200,52,119,92,85,57,15104,2381716306,2394024384,2387140873,2200222628,2434610395,2417513801,2329239862,2172687478,977,2,16,11330
1336865279,5808,33.5699996948242200,24.6345005035400400,35.0069999694824200,242.8970031738281200,17.0911502838134770,24.6441802978515620,27.7051200866699220,52,119,93,85,52,15109,2403900973,2418316425,2413521426,2216058404,2466912658,2445901632,2347408429,2176774491,1005,1,16,45414
1336865333,5806,30.2800006866455080,24.6539001464843750,35.0135002136230500,242.7669067382812500,16.3844299316406250,24.6661701202392580,27.7023696899414060,51,117,93,86,51,15102,2413744932,2427825307,2424141924,2228568073,2491708096,2465917906,2359677558,2180928932,762,2,16,63377
1336865390,5805,26.8199996948242200,24.6805000305175780,35.0197982788085940,243.0742950439453000,15.4917201995849610,24.6939601898193360,27.6777400970459000,51,119,92,85,56,15120,2428585289,2442800640,2439804772,2244824886,2522557558,2491828251,2375437101,2185424694,291,2,16,11660
1336865444,5807,23.6299991607666000,24.6905002593994140,35.0236015319824200,243.1342926025390600,15.0165100097656250,24.7087497711181640,27.6693000793457030,51,119,92,84,57,15117,2446234669,2462042834,2461612361,2268732288,2556975094,2521150811,2394098907,2191173440,3484,1,17,23829
